This is the latest recevied weather packets stored in our database for station/object PU5BHV. If no packets are shown the sender has not sent any weather packets the latest 10 day(s).
| Time | Temp. | Humidity | Pressure | Rain* | Wind** | Luminosity | Snow |
|---|---|---|---|---|---|---|---|
| 1777755630 | 20° C | 99% | 1017.2 hPa | 0 mm | - | 0 W/m² | - |
| 1777755326 | 20° C | 99% | 1017.1 hPa | 0 mm | - | 0 W/m² | - |
| 1777755023 | 20° C | 99% | 1016.6 hPa | 0 mm | - | 0 W/m² | - |
| 1777754720 | 20° C | 99% | 1017.2 hPa | 0 mm | - | 0 W/m² | - |
| 1777754418 | 20° C | 99% | 1017.3 hPa | 0 mm | - | 0 W/m² | - |
| 1777754115 | 20° C | 99% | 1017 hPa | 0 mm | - | 2 W/m² | - |
| 1777753812 | 20° C | 99% | 1017.1 hPa | 0 mm | - | 2 W/m² | - |
| 1777753508 | 20° C | 99% | 1017 hPa | 0 mm | - | 3 W/m² | - |
| 1777753206 | 20° C | 99% | 1016.8 hPa | 0 mm | - | 5 W/m² | - |
| 1777752902 | 20.56° C | 99% | 1016.7 hPa | 0 mm | - | 5 W/m² | - |
| 1777752599 | 20.56° C | 99% | 1016.6 hPa | 0 mm | - | 5 W/m² | - |
| 1777752295 | 20.56° C | 99% | 1016.7 hPa | 0 mm | - | 6 W/m² | - |
| 1777751992 | 20.56° C | 98% | 1016.3 hPa | 0 mm | - | 5 W/m² | - |
| 1777751690 | 20.56° C | 98% | 1016.1 hPa | 0 mm | - | 3 W/m² | - |
| 1777751385 | 20.56° C | 98% | 1016.4 hPa | 0 mm | - | 5 W/m² | - |
| 1777751083 | 20.56° C | 98% | 1016.4 hPa | 0 mm | - | 6 W/m² | - |
| 1777750778 | 20.56° C | 98% | 1015.7 hPa | 0 mm | - | 7 W/m² | - |
| 1777750476 | 20.56° C | 98% | 1016.2 hPa | 0 mm | - | 10 W/m² | - |
| 1777750171 | 20.56° C | 98% | 1016.2 hPa | 0 mm | - | 12 W/m² | - |
| 1777749869 | 20.56° C | 98% | 1016.1 hPa | 0 mm | - | 13 W/m² | - |
| 1777749565 | 20.56° C | 98% | 1016.1 hPa | 0 mm | - | 16 W/m² | - |
| 1777749263 | 20.56° C | 98% | 1016 hPa | 0 mm | - | 16 W/m² | - |
| 1777748961 | 21.11° C | 97% | 1016.3 hPa | 0 mm | - | 14 W/m² | - |
| 1777748658 | 21.11° C | 97% | 1015.5 hPa | 0 mm | - | 18 W/m² | - |
| 1777748354 | 21.11° C | 97% | 1015.9 hPa | 0 mm | - | 17 W/m² | - |
* Rain latest hour (hover to see other rain measurements)
** Current wind speed in m/s (hover to see current wind gust speed)